Regional Weather Roundup
Issued by NWS Newport/Morehead, NC

Current Version | Previous Version | Graphics & Text | Print | Product List | Glossary Off
Versions: 1 2 3 4 5 6 7 8 9 10 11 12 13 14 15 16 17 18 19 20 21 22 23 24 25 26 27 28 29 30 31 32 33 34 35 36 37 38 39 40 41 42 43 44 45 46 47 48 49 50

000
ASUS42 KMHX 102112
RWRMHX
WEATHER ROUNDUP FOR EASTERN NORTH CAROLINA
NATIONAL WEATHER SERVICE NEWPORT/MOREHEAD CITY NC
400 PM EST SAT DEC 10 2016

NOTE: "FAIR" INDICATES FEW OR NO CLOUDS BELOW 12,000 FEET
WITH NO SIGNIFICANT WEATHER AND/OR OBSTRUCTIONS TO VISIBILITY

NCZ015>017-031-032-045>047-102-103-102200-
NORTH COAST

CITY           SKY/WX    TMP DP  RH WIND       PRES   REMARKS
EDENTON        CLEAR     43  17  36 CALM      30.47S
ELIZABETH CITY CLEAR     39  18  42 W8        30.46S
KITTY HAWK     CLEAR     38  25  59 W3        30.45S
MANTEO         CLEAR     39  19  43 NW5       30.47S

$$

NCZ045>047-081-094-103-104-102200-
CENTRAL COAST

CITY           SKY/WX    TMP DP  RH WIND       PRES   REMARKS
FRISCO         CLEAR     42  22  44 NW7       30.46S

$$

NCZ095-097-098-100-101-102200-
SOUTHERN COAST

CITY           SKY/WX    TMP DP  RH WIND       PRES   REMARKS
BEAUFORT       CLEAR     44  18  35 VRB3      30.47R
CEDAR ISLAND   NOT AVBL
JACKSONVILLE   CLEAR     43  16  33 W8        30.48R
PINEY ISLAND   CLEAR    N/A N/A N/A W3        30.47R
WILMINGTON     SUNNY     44  17  33 NW7       30.49R


$$

NCZ011>013-027>030-043-044-078>080-089-090>093-098-102200-
COASTAL PLAIN

CITY           SKY/WX    TMP DP  RH WIND       PRES   REMARKS
AHOSKIE        CLEAR     38  15  39 CALM      30.47R
CLINTON        CLEAR     42  18  38 SW5       30.49S
ELIZABETHTOWN  SUNNY     43  15  32 CALM      30.48S
GOLDSBORO      CLEAR     43  11  27 NW6       30.46R
GREENVILLE     CLEAR     41  16  36 NW3       30.47S
HAVELOCK       CLEAR     44  19  36 N7        30.48R
KENANSVILLE    CLEAR     41  16  36 W3        30.48S
KINSTON        CLEAR     41  14  33 NW3       30.48S
NEW BERN       CLEAR     43  16  33 NW6       30.48R
RICHLANDS      CLEAR     41  16  36 VRB5      30.49R
ROCKY MOUNT    CLEAR     41  15  35 SW7       30.47R
WASHINGTON     CLEAR     41  15  34 W7        30.47S
WHITEVILLE     SUNNY     44  16  32 N5        30.49R

$$

AMZ130-135-150-152-154-156-158-170-250-252-270-ANZ085-086-088-633-658-670-102200-
MARINE OBSERVATIONS

STATION/POSITION TIME  TEMP    WIND        PRES    WAVE   SWELL
                       AIR SEA DIR/SP/G            HT/PER HT/PER
                 (UTC) (F)     (DEG/KT/KT) (MB)    (FT/S) (FT/S)
CHESAPEAKE LIGHT NOT AVBL
64 E VA BEACH    2050   40 58  290/ 12/ 17 1030.6    3/ 6   2/ 6
DUCK             2036   40 51  300/  8/ 12 1030.7
2 E DUCK         NOT AVBL
OREGON INLET     2036   39 50  310/  8/ 11 1031.2
13E OREGON INLT  NOT AVBL
HATTERAS CG      2036   41 52  320/  8/ 11 1031.0
DIAMOND BUOY     2050   43 77  340/  8/ 14 1031.4    4/ 9   3/ 9
CAPE LOOKOUT     2100   43     330/  5/  7 1031.3
BEAUFORT LAB     2036   43 49  340/  4/  6 1030.5
30 SE NEW RVR IN 2008   44 68  340/  8/ 14 1031.9
30 SE NEW RVR IN 2043      68                N/A     2/ 9
27 SE WRIGHTSVLE 2008   44 69  300/  8/ 14 1031.6
5 SE WRIGHTSVLE  2008   42 60  350/  6/ 14 1031.9
225 S CAPE HAT   2050   61 73  360/ 10/ 14 1028.4    4/ 8   3/ 8
41 SE CHARLESTON 2050   51 73   30/ 12/ 16 1031.2    3/ 6   2/ 8

$$



USA.gov is the U.S. government's official web portal to all federal, state and local government web resources and services.